Aérodrome :
LOGIN :

S'inscrire | Disclaimer

   EN    FR    IT 

 










Légende :    VFR   VFR Marginal   IFR   IFR Intensif   IFR Très Intensif
Visi : 
Plafond : 
>= 8 km
>= 3000ft
5 à 8 km
1000 à 3000 ft
1500m à 5 km
500 à 1000 ft
800 à 1500m
200 à 500 ft
< 800m
< 200 ft
Symboles :   Orages  Brouillard  Fortes neiges  Fortes précipitations  Vent > 20 kt
SIGMETs :   Divers  Orages  Givrage  Turbulence  Onde Orograph.  Cendres Volcan.







- Altitude de l'aérodrome : 1674 ft
- Code IATA : BRN


LSZB - Bern Belp

DERNIER METAR :
  • 180620Z VRB03KT CAVOK 19/17 Q1019 NOSIG

METARs EXPIRÉS :
  • 180550Z VRB02KT CAVOK 17/17 Q1019 NOSIG
  • 180520Z VRB03KT 9999 SCT140 16/15 Q1019 NOSIG
  • 180450Z 10003KT 9999 SCT140 15/15 Q1019 NOSIG
  • 180420Z 00000KT 9999 SCT140 15/15 Q1019 NOSIG
  • 180350Z 11003KT 9999 FEW040 SCT110 15/15 Q1019 NOSIG

TAF TAF LSZB
Valide du 18 à 06h jusqu'au 18 à 15h UTC


180525Z 1806/1815 VRB03KT 9999 FEW060
PROB40
TEMPO 1813/1815 SHRA SCT050TCU
ATIS : +41 22 417 40 76
Pas de NOTAMs connus pour ce terrain.



MET'MAP, la Météo Aéronautique d'un coup d'oeil ! - Copyright ORBIFLY Décembre 2007 - Disclaimer

ORBIFLY MET'MAP TEAM :

Programmation & Développement : Alexandra Zaïnal
Conception & Développement : Baudouin d'Aumeries
Co-Programmation & Développement : Marc-Olivier Méhu
Soutien technique & logistique : Manuel Goepfert

Contact : metmap@orbifly.com




SOURCES & CREDITS :

   NOAA